Weather History for PHNL - November, 2011

Change the Weather History Date:

Friday, November 25, 2011

  Actual Average Record
Temperature  
Mean Temperature 79 °F 77 °F  
Max Temperature 84 °F 83 °F 87 °F (1968)
Min Temperature 73 °F 71 °F 57 °F (1990)
Degree Days  
Heating Degree Days 0 0  
Month to date heating degree days 0 0  
Since 1 July heating degree days 0 0  
Cooling Degree Days 14 12  
Month to date cooling degree days 365 323  
Year to date cooling degree days 4535 4269  
Growing Degree Days 28 (Base 50)    
Moisture  
Dew Point 64 °F    
Average Humidity 64    
Maximum Humidity 84    
Minimum Humidity 44    
Precipitation  
Precipitation T in 0.07 in 5.01 in (1975)
Month to date precipitation 0.87 2.02  
Year to date precipitation 14.52 13.46  
Snow  
Snow 0.00 in - - ()
Month to date snowfall 0.0  
Since 1 July snowfall 0.0  
Since 1 September snowfall 0.0  
Snow Depth 0.00 in    
Sea Level Pressure  
Sea Level Pressure 30.09 in    
Wind  
Wind Speed 7 mph (NNE)    
Max Wind Speed 15 mph    
Max Gust Speed 23 mph    
Visibility 10 miles    
Events Rain    
T = Trace of Precipitation, MM = Missing Value Source: NWS Daily Summary

Daily Weather History Graph

Daily Weather History Graph

Search for Another Location

Airport or City:

Trip Planner

Search our weather history database for the weather conditions in past years. The results will help you decide how hot, cold, wet, or windy it might be!

Date:

Astronomy

Nov. 25, 2011 Rise Set
Actual Time 6:48 AM HST 5:48 PM HST
Civil Twilight 6:25 AM HST 6:12 PM HST
Nautical Twilight 5:57 AM HST 6:39 PM HST
Astronomical Twilight 5:30 AM HST 7:06 PM HST
Moon 7:22 AM HST (11/25) 6:34 PM HST (11/25)
Length of Visible Light 11h 47m
Length of Day
10h 59m
New Moon, 1% of the Moon is Illuminated
Nov 25
New Moon
Dec 1
First Quarter
Dec 10
Full
Dec 17
Last Quarter
Dec 24
New

Hourly Weather History & Observations

Time (HST) Temp. Heat Index Dew Point Humidity Pressure Visibility Wind Dir Wind Speed Gust Speed Precip Events Conditions
12:53 AM 73.0 °F - 66.9 °F 81% 30.09 in 10.0 mi NNW 4.6 mph - N/A   Scattered Clouds
1:53 AM 73.9 °F - 68.0 °F 82% 30.09 in 10.0 mi North 3.5 mph - N/A   Mostly Cloudy
2:53 AM 73.9 °F - 68.0 °F 82% 30.06 in 10.0 mi NNW 4.6 mph - N/A   Mostly Cloudy
3:53 AM 73.9 °F - 68.0 °F 82% 30.06 in 10.0 mi NNW 6.9 mph - N/A   Mostly Cloudy
4:53 AM 73.9 °F - 66.9 °F 79% 30.06 in 10.0 mi Calm Calm - N/A   Mostly Cloudy
5:53 AM 73.0 °F - 68.0 °F 84% 30.06 in 10.0 mi NE 3.5 mph - 0.00 in   Mostly Cloudy
6:53 AM 73.9 °F - 66.0 °F 76% 30.08 in 10.0 mi NE 4.6 mph - N/A   Mostly Cloudy
7:53 AM 73.0 °F - 66.9 °F 81% 30.10 in 10.0 mi NW 4.6 mph - N/A   Scattered Clouds
8:53 AM 77.0 °F - 66.0 °F 69% 30.11 in 10.0 mi Calm Calm - N/A   Mostly Cloudy
9:53 AM 80.1 °F 81.7 °F 64.0 °F 58% 30.12 in 10.0 mi NNE 8.1 mph - N/A   Mostly Cloudy
10:53 AM 81.0 °F 82.5 °F 64.0 °F 56% 30.11 in 10.0 mi NNE 6.9 mph - N/A   Mostly Cloudy
11:53 AM 82.9 °F 84.0 °F 63.0 °F 51% 30.09 in 10.0 mi ENE 10.4 mph - N/A   Mostly Cloudy
12:53 PM 84.0 °F 84.4 °F 61.0 °F 46% 30.07 in 10.0 mi NNE 13.8 mph 19.6 mph N/A   Scattered Clouds
1:53 PM 82.9 °F 83.7 °F 62.1 °F 49% 30.05 in 10.0 mi NE 12.7 mph - N/A   Scattered Clouds
2:53 PM 82.0 °F 83.0 °F 62.1 °F 51% 30.05 in 10.0 mi NE 12.7 mph - N/A   Scattered Clouds
3:53 PM 79.0 °F - 61.0 °F 54% 30.05 in 10.0 mi NE 9.2 mph - N/A   Scattered Clouds
4:53 PM 78.1 °F - 62.1 °F 58% 30.06 in 10.0 mi NE 9.2 mph - N/A   Scattered Clouds
5:53 PM 77.0 °F - 63.0 °F 62% 30.08 in 10.0 mi NNE 6.9 mph - N/A   Scattered Clouds
6:53 PM 77.0 °F - 63.0 °F 62% 30.10 in 10.0 mi NE 9.2 mph - N/A   Scattered Clouds
7:53 PM 77.0 °F - 62.1 °F 60% 30.11 in 10.0 mi NE 12.7 mph - N/A   Scattered Clouds
8:53 PM 75.0 °F - 63.0 °F 66% 30.13 in 10.0 mi NNE 8.1 mph - N/A   Scattered Clouds
9:53 PM 75.9 °F - 64.0 °F 67% 30.14 in 10.0 mi North 9.2 mph - 0.00 in Rain Light Rain
10:53 PM 75.0 °F - 64.0 °F 69% 30.14 in 10.0 mi North 5.8 mph - 0.00 in   Scattered Clouds
11:53 PM 73.9 °F - 62.1 °F 66% 30.13 in 10.0 mi North 8.1 mph - N/A   Scattered Clouds